1496340001.25,65470,22.0,74162.5,2.01,-31.95,-32.39,0,*7B
1496340002.48,65471,22.06,74158.3,2.01,-32.13,-32.39,0,*77
1496340003.73,65472,22.0,74162.8,2.01,-31.95,-32.35,0,*75
1496340004.99,65473,22.0,74166.5,2.03,-31.95,-32.29,0,*7B
1496340006.22,65474,22.0,74168.8,2.01,-32.01,-32.39,0,*71
1496340007.44,65475,22.0,74164.5,2.01,-32.13,-32.35,0,*7F
1496340008.66,65476,22.0,74164.5,2.01,-32.13,-32.57,0,*78
1496340009.92,65477,22.0,74162.5,2.01,-32.19,-32.51,0,*75
1496340011.15,65478,22.06,74162.3,1.99,-32.19,-32.39,0,*76
1496340012.38,65479,22.0,74162.3,1.99,-32.19,-32.39,0,*77
1496340013.58,65480,22.0,74162.0,1.99,-32.01,-32.35,0,*74
1496340014.81,65481,22.06,74162.5,1.99,-32.01,-32.29,0,*78
1496340016.01,65482,22.0,74162.5,1.99,-32.01,-32.39,0,*7A
1496340017.25,65483,22.06,74166.5,1.99,-32.01,-32.19,0,*79
1496340018.45,65484,22.0,74166.0,1.99,-32.01,-32.23,0,*77
1496340019.7,65485,22.0,74160.5,1.97,-31.67,-32.19,0,*72
1496340020.92,65486,22.0,74164.3,1.99,-31.85,-32.13,0,*79
1496340022.15,65487,22.06,74166.5,1.99,-31.95,-32.35,0,*7D
1496340023.35,65488,22.06,74170.5,1.99,-32.01,-32.35,0,*7C
1496340024.59,65489,22.0,74162.3,1.97,-31.33,-31.57,0,*76
1496340025.85,65490,22.0,74156.8,1.99,-31.61,-31.95,0,*79
1496340027.13,65491,22.0,74162.5,2.01,-31.85,-32.29,0,*74
1496340028.38,65492,22.0,74156.5,1.99,-31.85,-32.19,0,*76
1496340029.64,65493,22.0,74162.5,1.99,-31.85,-32.19,0,*77
1496340030.83,65494,22.0,74170.8,1.99,-32.13,-32.35,0,*72
1496340032.06,65495,22.06,74170.0,1.99,-31.79,-31.95,0,*75
1496340033.29,65496,22.06,74160.0,1.99,-31.85,-32.13,0,*78
1496340034.51,65497,22.0,74158.0,1.99,-32.01,-32.29,0,*7F
1496340035.72,65498,22.06,74160.3,1.99,-32.01,-32.35,0,*7D
1496340036.97,65499,22.0,74160.0,1.99,-31.95,-32.19,0,*7C
1496340038.2,65500,22.0,74166.0,1.99,-31.95,-32.35,0,*73
1496340039.43,65501,22.0,74166.5,2.01,-32.13,-32.39,0,*71
1496340040.68,65502,22.06,74162.8,2.01,-31.95,-32.35,0,*73
1496340041.89,65503,22.06,74162.0,1.99,-32.01,-32.35,0,*7E
1496340043.13,65504,22.06,74162.5,1.99,-31.95,-32.29,0,*7A
1496340044.33,65505,22.0,74162.5,1.99,-31.33,-31.67,0,*7E
1496340045.61,65506,22.0,74158.5,2.01,-31.51,-31.95,0,*76
1496340046.86,65507,22.0,74154.0,2.01,-31.61,-32.01,0,*7A
1496340048.14,65508,22.0,74154.5,2.01,-31.95,-32.29,0,*74
1496340049.39,65509,22.0,74154.0,2.01,-31.79,-32.19,0,*74
1496340050.63,65510,22.06,74158.8,2.01,-32.01,-32.39,0,*72
1496340051.88,65511,22.0,74158.0,2.01,-32.19,-32.51,0,*74
1496340053.11,65512,22.0,74158.3,2.01,-32.13,-32.35,0,*7F
1496340054.36,65513,22.06,74158.3,2.01,-32.01,-32.29,0,*70
1496340055.62,65514,22.0,74154.8,2.01,-32.19,-32.51,0,*71
1496340056.85,65515,22.06,74158.8,2.01,-32.13,-32.51,0,*7A
1496340058.08,65516,22.0,74158.0,2.01,-32.13,-32.51,0,*79
1496340059.32,65517,22.06,74162.3,2.01,-32.19,-32.57,0,*74
1496340060.57,65518,22.06,74170.3,2.01,-32.19,-32.57,0,*7B
1496340061.83,65519,22.06,74168.3,2.01,-32.19,-32.51,0,*7C
1496340063.05,65520,22.0,74166.5,1.99,-32.19,-32.35,0,*76
1496340064.28,65521,22.06,74166.5,1.99,-31.95,-32.35,0,*70
1496340065.53,65522,22.0,74164.5,2.01,-32.19,-32.39,0,*7A
1496340066.76,65523,22.0,74166.0,1.99,-32.19,-32.39,0,*79
1496340067.99,65524,22.06,74170.3,1.99,-32.19,-32.35,0,*72
1496340069.19,65525,22.0,74166.0,1.99,-32.13,-32.39,0,*75
1496340070.41,65526,22.0,74168.0,1.99,-32.19,-32.57,0,*74
1496340071.64,65527,22.0,74168.3,1.99,-32.19,-32.51,0,*73
1496340072.89,65528,22.0,74170.0,1.97,-32.07,-32.39,0,*73
1496340074.12,65529,22.0,74166.0,1.99,-31.95,-32.35,0,*78
1496340075.32,65530,22.0,74166.3,1.99,-32.13,-32.39,0,*71
1496340076.57,65531,22.0,74168.5,1.97,-32.07,-32.39,0,*7B
1496340077.8,65532,22.0,74168.5,1.97,-32.01,-32.39,0,*7E
1496340079.06,65533,22.06,74168.5,1.97,-32.19,-32.39,0,*76
1496340080.25,65534,22.0,74170.0,1.99,-32.13,-32.35,0,*79
1496340081.53,65535,22.06,74172.0,1.97,-32.19,-32.45,0,*7B
1496340082.75,0,22.0,74170.0,1.97,-32.23,-32.45,0,*72
1496340083.94,1,22.0,74166.0,1.97,-32.23,-32.57,0,*70
1496340085.12,2,22.0,74164.3,1.99,-32.13,-32.39,0,*76
1496340086.32,3,22.0,74168.0,1.97,-32.23,-32.39,0,*7A
1496340087.55,4,22.0,74172.5,1.97,-32.19,-32.39,0,*74
1496340088.8,5,22.0,74170.3,1.97,-32.07,-32.45,0,*71
1496340090.03,6,22.0,74172.8,1.97,-32.19,-32.39,0,*76
1496340091.26,7,22.0,74164.3,1.97,-32.19,-32.39,0,*77
1496340092.51,8,22.0,74166.0,1.97,-32.19,-32.45,0,*73
1496340093.7,9,22.06,74170.0,1.97,-32.23,-32.57,0,*78
1496340094.93,10,22.0,74164.5,1.97,-32.19,-32.39,0,*41
1496340096.19,11,22.0,74164.8,1.97,-31.91,-32.19,0,*41
1496340097.43,12,22.06,74166.5,1.97,-32.07,-32.35,0,*40
1496340098.66,13,22.06,74166.5,1.97,-32.07,-32.39,0,*4D
1496340099.92,14,22.0,74164.5,1.97,-32.19,-32.45,0,*4E
1496340101.15,15,22.0,74164.3,1.93,-32.23,-32.63,0,*46
1496340102.38,16,22.06,74170.5,1.95,-32.29,-32.63,0,*49
1496340103.58,17,22.0,74168.3,1.97,-32.23,-32.57,0,*47
1496340104.78,18,22.0,74168.8,1.97,-32.23,-32.39,0,*40
1496340106.01,19,22.0,74168.8,1.97,-32.23,-32.45,0,*4A
1496340107.21,20,22.0,74170.5,1.95,-32.23,-32.45,0,*42
1496340108.44,21,22.0,74162.5,1.95,-31.91,-32.29,0,*43
1496340109.68,22,22.0,74164.8,1.95,-32.07,-32.45,0,*46
1496340110.87,23,22.0,74164.0,1.95,-32.13,-32.39,0,*49
1496340112.05,24,22.0,74164.3,1.95,-32.13,-32.39,0,*4E
1496340113.26,25,22.06,74166.5,1.95,-32.13,-32.45,0,*44
1496340114.47,26,22.06,74166.5,1.95,-32.13,-32.45,0,*47
1496340115.68,27,22.0,74166.8,1.93,-32.23,-32.51,0,*46
1496340116.86,28,22.0,74166.5,1.95,-32.23,-32.39,0,*41
1496340118.13,29,22.0,74160.5,1.93,-31.57,-31.95,0,*43
1496340119.36,30,22.0,74162.8,1.93,-31.91,-32.23,0,*4F
1496340120.6,31,22.0,74160.0,1.93,-32.07,-32.39,0,*49
1496340121.79,32,22.0,74166.3,1.95,-32.13,-32.51,0,*47
1496340123.03,33,22.0,74166.5,1.95,-32.07,-32.45,0,*46
1496340124.29,34,22.0,74166.0,1.93,-31.95,-32.29,0,*45
1496340125.5,35,22.0,74162.3,1.95,-31.73,-32.13,0,*43
1496340126.76,36,22.0,74156.0,1.93,-31.61,-32.07,0,*40
1496340128.0,37,22.0,74164.3,1.95,-31.73,-32.07,0,*44
1496340129.22,38,22.0,74162.5,1.95,-31.95,-32.39,0,*4E
1496340130.42,39,22.0,74160.3,1.95,-32.13,-32.45,0,*49
1496340131.63,40,22.0,74162.3,1.95,-32.23,-32.63,0,*40
1496340132.88,41,22.0,74162.5,1.93,-32.29,-32.63,0,*4D
1496340134.09,42,22.0,74158.0,1.95,-32.23,-32.45,0,*46
1496340135.3,43,22.0,74166.0,1.93,-32.13,-32.39,0,*49
1496340136.51,44,22.0,74164.8,1.95,-31.91,-32.39,0,*41
1496340137.74,45,22.0,74164.5,1.93,-32.13,-32.45,0,*44
1496340138.95,46,22.0,74166.5,1.95,-32.13,-32.29,0,*4B
1496340140.19,47,22.0,74154.8,1.95,-31.61,-32.07,0,*40
1496340141.37,48,22.0,74162.8,1.95,-31.79,-32.23,0,*40
1496340142.6,49,22.0,74156.0,1.97,-31.57,-32.01,0,*4F
1496340143.83,50,22.0,74156.0,1.97,-31.01,-31.39,0,*4C
1496340145.06,51,22.0,74156.5,1.97,-31.01,-31.23,0,*46
1496340146.29,52,22.0,74164.0,1.97,-31.23,-31.67,0,*45
1496340147.55,53,22.0,74156.8,1.97,-31.23,-31.73,0,*41
1496340148.78,54,22.0,74150.5,1.97,-31.33,-31.73,0,*47
1496340150.0,55,22.0,74146.8,1.97,-31.01,-31.51,0,*47
1496340151.24,56,22.0,74152.3,1.99,-31.57,-31.95,0,*41
1496340152.5,57,22.0,74162.0,1.97,-31.57,-31.91,0,*4A
1496340153.73,58,22.0,74158.5,1.97,-31.33,-31.85,0,*42
1496340154.93,59,22.0,74160.8,1.99,-31.33,-31.85,0,*4D
1496340156.17,60,22.0,74162.8,1.99,-31.61,-31.95,0,*41
1496340157.35,61,22.0,74158.8,1.99,-31.67,-32.01,0,*48
1496340158.6,62,22.0,74150.3,1.97,-31.51,-31.85,0,*4F
1496340159.84,63,22.0,74152.3,1.99,-31.51,-31.95,0,*41
1496340161.08,64,22.0,74156.3,1.99,-31.85,-32.19,0,*48
1496340162.29,65,22.0,74154.0,1.99,-31.79,-32.19,0,*4A
1496340163.53,66,22.0,74160.5,1.99,-31.85,-32.19,0,*4A
1496340164.76,67,22.0,74160.8,1.99,-31.85,-32.19,0,*4B
1496340166.0,68,22.0,74164.3,1.99,-31.85,-32.19,0,*44
1496340167.23,69,22.0,74162.8,1.99,-31.85,-32.29,0,*46
1496340168.47,70,22.0,74164.5,1.97,-32.07,-32.23,0,*43
1496340169.73,71,22.0,74164.5,1.97,-31.91,-32.19,0,*47
1496340170.91,72,22.0,74168.3,1.99,-31.79,-32.13,0,*46
1496340172.12,73,22.0,74168.0,1.99,-31.85,-32.13,0,*44
1496340173.35,74,22.0,74170.3,1.97,-31.91,-32.35,0,*4C
1496340174.58,75,22.0,74168.8,1.99,-31.95,-32.29,0,*4A
1496340175.84,76,22.0,74166.0,1.97,-31.85,-32.19,0,*45
1496340177.07,77,22.0,74170.8,1.97,-31.85,-32.01,0,*4D
1496340178.25,78,22.0,74172.5,1.99,-31.79,-32.01,0,*4F
1496340179.52,79,22.0,74172.3,1.97,-31.73,-32.19,0,*43
1496340180.69,80,22.06,74172.0,1.99,-31.67,-32.13,0,*44
1496340181.9,81,22.0,74166.8,1.99,-31.85,-32.13,0,*49
1496340183.11,82,22.0,74172.0,1.97,-32.01,-32.35,0,*4F
1496340184.34,83,22.0,74170.3,1.97,-31.85,-32.23,0,*46
1496340185.6,84,22.0,74170.8,1.97,-31.91,-32.19,0,*4D
1496340186.83,85,22.0,74168.5,1.97,-31.91,-32.23,0,*45
1496340188.06,86,22.06,74174.5,1.97,-31.91,-32.35,0,*41
1496340189.3,87,22.0,74170.8,1.99,-31.85,-32.29,0,*46
1496340190.51,88,22.0,74170.5,1.97,-32.01,-32.23,0,*42
1496340191.72,89,22.0,74170.5,1.97,-32.01,-32.35,0,*44
1496340192.98,90,22.0,74168.5,1.97,-31.85,-32.19,0,*4D
1496340194.18,91,22.0,74170.5,1.99,-31.79,-32.29,0,*42
1496340195.41,92,22.0,74174.0,1.97,-31.91,-32.23,0,*43
1496340196.62,93,22.0,74170.5,1.99,-32.01,-32.29,0,*4C
1496340197.83,94,22.0,74172.0,1.97,-32.01,-32.35,0,*48
1496340199.07,95,22.0,74172.0,1.97,-32.07,-32.39,0,*43
1496340200.31,96,22.0,74168.5,1.97,-32.07,-32.39,0,*40
1496340201.54,97,22.0,74172.3,1.97,-32.07,-32.39,0,*41
1496340202.77,98,22.0,74172.0,1.95,-32.29,-32.45,0,*4B
1496340203.96,99,22.0,74172.0,1.95,-32.23,-32.51,0,*45
1496340205.15,100,22.0,74172.0,1.95,-32.23,-32.51,0,*74
1496340206.34,101,22.0,74172.3,1.95,-32.23,-32.51,0,*75
1496340207.57,102,22.0,74172.3,1.95,-32.29,-32.45,0,*79
1496340208.79,103,22.0,74170.3,1.95,-32.23,-32.45,0,*72
1496340210.0,104,22.0,74172.8,1.95,-32.13,-32.45,0,*76
1496340211.26,105,22.0,74176.8,1.93,-32.07,-32.29,0,*7E
1496340212.48,106,22.0,74172.0,1.95,-31.95,-32.23,0,*79
1496340213.7,107,22.0,74170.5,1.93,-31.79,-32.13,0,*7F
1496340214.88,108,22.0,74168.0,1.95,-31.79,-32.23,0,*75
1496340216.1,109,22.0,74168.0,1.95,-31.91,-32.23,0,*72
1496340217.31,110,22.0,74170.3,1.95,-31.73,-32.13,0,*75
1496340218.53,111,22.0,74170.3,1.95,-31.91,-32.23,0,*7B
1496340219.72,112,22.0,74166.5,1.95,-31.79,-32.13,0,*7D
1496340220.96,113,22.0,74170.3,1.95,-31.95,-32.29,0,*77
1496340222.19,114,22.0,74166.0,1.95,-32.07,-32.29,0,*78
1496340223.41,115,22.0,74166.8,1.93,-32.13,-32.51,0,*75
1496340224.63,116,22.0,74170.3,1.93,-32.23,-32.51,0,*75
1496340225.83,117,22.0,74168.3,1.95,-32.13,-32.51,0,*71
1496340227.02,118,22.0,74172.5,1.95,-32.13,-32.39,0,*70
1496340228.23,119,22.0,74170.3,1.95,-31.95,-32.13,0,*74
1496340229.45,120,22.0,74168.0,1.95,-31.73,-32.23,0,*75
1496340230.68,121,22.0,74168.8,1.95,-31.91,-32.29,0,*72
1496340231.87,122,22.0,74170.3,1.95,-31.79,-32.23,0,*7D
1496340233.11,123,22.0,74170.8,1.95,-31.91,-32.29,0,*70
1496340234.36,124,22.0,74168.8,1.93,-32.07,-32.39,0,*7C
1496340235.6,125,22.0,74168.3,1.95,-32.07,-32.45,0,*70
1496340236.82,126,22.0,74170.0,1.93,-32.13,-32.51,0,*75
1496340238.06,127,22.0,74168.5,1.93,-32.13,-32.45,0,*71
1496340239.27,128,22.0,74168.0,1.95,-32.13,-32.45,0,*78
1496340240.52,129,22.0,74168.5,1.95,-32.07,-32.45,0,*7C
1496340241.78,130,22.0,74170.3,1.93,-31.91,-32.29,0,*74
1496340242.99,131,22.0,74174.3,1.93,-32.13,-32.39,0,*7D
1496340244.24,132,22.0,74174.3,1.93,-32.13,-32.45,0,*75
1496340245.48,133,22.0,74168.8,1.93,-32.07,-32.39,0,*7A
1496340246.75,134,22.0,74170.0,1.93,-31.95,-32.45,0,*7E
1496340247.99,135,22.0,74170.0,1.93,-32.13,-32.63,0,*76
1496340249.26,136,22.0,74168.0,1.93,-32.07,-32.45,0,*74
1496340250.51,137,22.0,74172.0,1.93,-32.07,-32.51,0,*70
1496340251.72,138,22.0,74170.8,1.93,-32.23,-32.69,0,*72
1496340252.96,139,22.0,74168.5,1.93,-32.29,-32.69,0,*79
1496340254.18,140,22.0,74168.8,1.93,-32.23,-32.69,0,*7D
1496340255.45,141,22.0,74170.0,1.93,-31.95,-32.45,0,*7C
1496340256.69,142,22.0,74164.5,1.95,-31.91,-32.45,0,*7D
1496340257.94,143,22.0,74156.0,1.93,-32.07,-32.51,0,*73
1496340259.18,144,22.0,74160.8,1.93,-31.95,-32.51,0,*7C
1496340260.42,145,22.0,74158.5,1.93,-32.23,-32.63,0,*72
1496340261.66,146,22.0,74162.0,1.93,-32.29,-32.69,0,*71
1496340262.87,147,22.0,74162.3,1.95,-32.23,-32.63,0,*76
1496340264.11,148,22.0,74162.8,1.93,-32.13,-32.45,0,*78
1496340265.35,149,22.0,74160.5,1.93,-32.29,-32.69,0,*7E
1496340266.61,150,22.0,74154.0,1.93,-32.29,-32.63,0,*7C
1496340267.87,151,22.0,74152.3,1.93,-32.29,-32.85,0,*75
1496340269.13,152,22.0,74154.8,1.93,-32.29,-32.79,0,*75
1496340270.38,153,22.0,74152.5,1.93,-32.39,-32.85,0,*76
1496340271.59,154,22.0,74152.3,1.95,-32.39,-32.79,0,*74
1496340272.84,155,22.0,74154.8,1.93,-32.39,-32.79,0,*73
1496340274.05,156,22.0,74160.0,1.93,-32.39,-32.69,0,*71
1496340275.3,157,22.0,74156.0,1.93,-32.45,-32.69,0,*7B
1496340276.52,158,22.0,74158.3,1.93,-32.39,-32.51,0,*74
1496340277.73,159,22.0,74154.0,1.91,-32.45,-32.57,0,*7A
1496340278.93,160,22.0,74148.8,1.91,-32.29,-32.57,0,*7A
1496340280.11,161,22.0,74148.5,1.91,-32.35,-32.57,0,*76
1496340281.33,162,22.0,74166.8,1.91,-32.29,-32.51,0,*7E
1496340282.57,163,22.0,74156.8,1.93,-31.91,-32.23,0,*78
1496340283.81,164,22.0,74150.8,1.91,-31.95,-32.29,0,*73
1496340285.01,165,22.0,74156.0,1.91,-32.01,-32.35,0,*71
1496340286.25,166,22.0,74158.5,1.91,-31.95,-32.29,0,*71
1496340287.47,167,22.0,74156.0,1.91,-32.01,-32.29,0,*7E
1496340288.69,168,22.0,74162.0,1.91,-31.95,-32.35,0,*72
1496340289.9,169,22.0,74158.8,1.91,-32.01,-32.29,0,*70
1496340291.12,170,22.0,74154.5,1.91,-31.95,-32.35,0,*7B
1496340292.36,171,22.0,74156.8,1.91,-31.85,-32.29,0,*76
1496340293.58,172,22.0,74158.3,1.91,-31.45,-31.85,0,*7C
1496340294.8,173,22.0,74160.8,1.91,-31.51,-32.01,0,*77
1496340295.99,174,22.0,74160.0,1.91,-31.79,-32.13,0,*79
1496340297.23,175,22.0,74164.8,1.91,-31.85,-32.29,0,*72
1496340298.47,176,22.0,74164.5,1.93,-31.73,-32.13,0,*73
1496340299.69,177,22.0,74170.0,1.91,-31.45,-31.95,0,*78
1496340300.88,178,22.0,74162.5,1.91,-31.67,-32.13,0,*7A
1496340302.09,179,22.0,74164.8,1.91,-31.61,-32.01,0,*7E
1496340303.31,180,22.0,74164.5,1.91,-31.85,-32.13,0,*71
1496340304.53,181,22.0,74166.8,1.91,-31.79,-32.19,0,*79
1496340305.8,182,22.0,74158.3,1.89,-31.61,-31.85,0,*7C
1496340307.06,183,22.0,74158.3,1.93,-31.39,-31.73,0,*72
1496340308.29,184,22.0,74162.0,1.93,-31.29,-31.73,0,*74
1496340309.56,185,22.0,74162.0,1.93,-31.61,-32.07,0,*79
1496340310.83,186,22.0,74162.0,1.93,-31.61,-31.95,0,*72
1496340312.11,187,22.0,74156.3,1.93,-31.73,-31.95,0,*70
1496340313.38,188,22.0,74162.5,1.93,-31.73,-32.07,0,*77
1496340314.64,189,22.0,74162.0,1.93,-31.73,-31.91,0,*7A
1496340315.91,190,22.0,74164.8,1.93,-31.39,-31.91,0,*7C
1496340317.15,191,22.0,74160.5,1.95,-31.61,-32.07,0,*7A
1496340318.42,192,22.0,74162.8,1.93,-31.61,-32.07,0,*7F
1496340319.64,193,22.0,74166.5,1.95,-31.91,-32.39,0,*7A
1496340320.91,194,22.0,74162.3,1.93,-31.95,-32.29,0,*7E
1496340322.17,195,22.0,74160.3,1.93,-31.91,-32.29,0,*7B
1496340323.39,196,22.0,74162.0,1.95,-31.95,-32.39,0,*7B
1496340324.64,197,22.0,74162.5,1.93,-32.07,-32.39,0,*74
1496340325.88,198,22.0,74160.8,1.93,-32.07,-32.39,0,*7B
1496340327.13,199,22.0,74158.5,1.93,-32.07,-32.39,0,*7A
1496340328.37,200,22.0,74162.8,1.93,-31.91,-32.13,0,*7D
1496340329.58,201,22.0,74166.0,1.93,-31.79,-32.13,0,*7A
1496340330.82,202,22.0,74164.8,1.93,-31.91,-32.13,0,*7F
1496340332.04,203,22.0,74160.3,1.93,-31.79,-32.23,0,*7B
1496340333.25,204,22.0,74162.0,1.93,-31.79,-32.23,0,*7C
1496340334.49,205,22.0,74162.0,1.93,-31.91,-32.23,0,*7B
1496340335.71,206,22.0,74166.8,1.95,-31.73,-32.13,0,*71
1496340336.92,207,22.0,74164.3,1.93,-31.45,-31.79,0,*7C
1496340338.16,208,22.0,74162.0,1.93,-31.45,-31.73,0,*79
1496340339.38,209,22.0,74160.8,1.95,-31.73,-32.13,0,*7E
1496340340.59,210,22.0,74164.8,1.95,-31.95,-32.13,0,*7E
1496340341.83,211,22.0,74166.0,1.93,-31.91,-32.23,0,*7E
1496340343.07,212,22.0,74164.3,1.93,-31.95,-32.13,0,*7A
1496340344.31,213,22.0,74164.5,1.93,-31.45,-31.73,0,*73
1496340345.53,214,22.0,74168.5,1.93,-31.79,-32.13,0,*7E
1496340346.77,215,22.0,74164.5,1.93,-31.91,-32.23,0,*7A
1496340348.03,216,22.0,74164.3,1.93,-31.95,-32.29,0,*77
1496340349.28,217,22.0,74164.5,1.93,-31.95,-32.13,0,*7F
1496340350.52,218,22.0,74164.3,1.93,-31.95,-32.13,0,*70
1496340351.76,219,22.0,74166.5,1.93,-31.79,-32.07,0,*76
1496340352.98,220,22.0,74166.3,1.93,-31.79,-32.23,0,*7A
1496340354.22,221,22.0,74166.0,1.93,-31.73,-32.13,0,*72
1496340355.43,222,22.0,74164.0,1.93,-31.45,-31.79,0,*7B
1496340356.7,223,22.0,74166.5,1.93,-31.61,-31.91,0,*7A
1496340357.94,224,22.0,74166.0,1.93,-31.73,-32.13,0,*77
1496340359.21,225,22.0,74170.0,1.93,-31.61,-31.95,0,*78
1496340360.4,226,22.0,74164.3,1.91,-31.67,-32.13,0,*72
1496340361.62,227,22.0,74168.0,1.91,-31.61,-32.01,0,*76
1496340362.89,228,22.0,74166.3,1.93,-31.61,-31.95,0,*75
1496340364.11,229,22.0,74164.0,1.93,-31.79,-32.23,0,*73
1496340365.35,230,22.0,74160.0,1.93,-32.07,-32.39,0,*7A
1496340366.57,231,22.0,74162.0,1.91,-32.13,-32.45,0,*77
1496340367.81,232,22.0,74160.8,1.93,-32.07,-32.39,0,*78
1496340369.06,233,22.0,74162.0,1.91,-31.95,-32.19,0,*71
1496340370.31,234,22.0,74160.0,1.91,-31.85,-32.19,0,*77
1496340371.56,235,22.0,74160.5,1.91,-31.85,-32.19,0,*76
1496340372.79,236,22.0,74160.8,1.89,-31.85,-32.13,0,*76
1496340374.04,237,22.0,74160.8,1.91,-31.85,-32.19,0,*74
1496340375.29,238,22.0,74164.5,1.91,-31.85,-32.19,0,*7B
1496340376.51,239,22.0,74164.0,1.91,-31.79,-32.19,0,*79
1496340377.76,240,22.0,74164.5,1.91,-31.95,-32.19,0,*75
1496340378.98,241,22.0,74170.3,1.91,-32.01,-32.19,0,*7A
1496340380.23,242,22.0,74168.8,1.91,-31.85,-32.19,0,*76
1496340381.48,243,22.0,74166.3,1.91,-31.85,-32.19,0,*77
1496340382.72,244,22.0,74170.5,1.91,-31.61,-31.95,0,*7D
1496340383.91,245,22.0,74170.8,1.91,-31.67,-32.13,0,*77
1496340385.12,246,22.0,74172.3,1.91,-31.51,-32.01,0,*72
1496340386.34,247,22.0,74170.3,1.91,-31.45,-31.85,0,*79
1496340387.56,248,22.0,74166.0,1.91,-31.23,-31.67,0,*7A
1496340388.77,249,22.0,74156.0,1.91,-31.05,-31.51,0,*7A
1496340389.96,250,22.0,74162.5,1.91,-31.79,-32.13,0,*7C
1496340391.2,251,22.0,74164.3,1.93,-31.91,-32.23,0,*7A
1496340392.44,252,22.0,74164.8,1.93,-31.91,-32.13,0,*7A
1496340393.63,253,22.0,74162.0,1.95,-31.79,-32.23,0,*78
1496340394.85,254,22.0,74162.5,1.93,-31.79,-32.23,0,*79
1496340396.11,255,22.0,74166.8,1.93,-31.95,-32.29,0,*70
1496340397.3,256,22.0,74162.5,1.95,-31.79,-32.23,0,*7D
1496340398.54,257,22.0,74162.8,1.93,-31.73,-32.13,0,*73
1496340399.73,258,22.0,74166.3,1.95,-31.79,-32.13,0,*70
1496340400.97,259,22.0,74170.3,1.93,-31.61,-31.79,0,*71
1496340402.21,260,22.0,74166.5,1.93,-31.39,-31.29,0,*73
1496340403.42,261,22.0,74162.5,1.95,-31.17,-31.57,0,*71
1496340404.69,262,22.0,74168.8,1.93,-31.23,-31.57,0,*73
1496340405.91,263,22.0,74168.5,1.95,-31.23,-31.45,0,*77
1496340407.16,264,22.0,74164.8,1.95,-31.23,-31.61,0,*76
1496340408.35,265,22.0,74164.5,1.95,-31.17,-31.45,0,*76
1496340409.54,266,22.0,74168.3,1.95,-31.05,-31.29,0,*7C
1496340410.73,267,22.0,74168.8,1.95,-31.29,-31.79,0,*76
1496340411.99,268,22.0,74166.5,1.97,-31.23,-31.51,0,*7B
1496340413.22,269,22.0,74166.8,1.99,-31.11,-31.45,0,*70
1496340414.43,270,22.0,74168.3,1.99,-31.11,-31.33,0,*79
1496340415.65,271,22.0,74170.0,1.99,-31.17,-31.51,0,*7A
1496340416.9,272,22.0,74170.5,1.97,-31.51,-31.73,0,*75
1496340418.09,273,22.0,74168.0,1.99,-31.33,-31.67,0,*7B
1496340419.3,274,22.0,74164.0,1.99,-31.29,-31.61,0,*71
1496340420.52,275,22.0,74168.8,1.99,-31.45,-31.85,0,*70
1496340421.73,276,22.0,74168.5,1.99,-31.17,-31.51,0,*7D
1496340422.92,277,22.0,74170.3,1.99,-31.45,-31.79,0,*71
1496340424.11,278,22.0,74168.0,1.99,-31.45,-31.67,0,*71
1496340425.32,279,22.0,74174.0,1.99,-31.51,-31.79,0,*7A
1496340426.54,280,22.0,74174.5,1.99,-31.11,-31.45,0,*77
1496340427.73,281,22.0,74170.8,1.99,-31.05,-31.17,0,*74
1496340428.97,282,22.0,74168.5,2.01,-31.17,-31.51,0,*74
1496340430.19,283,22.0,74170.5,2.01,-31.29,-31.79,0,*72
1496340431.46,284,22.0,74170.5,2.01,-31.61,-31.95,0,*7B
1496340432.72,285,22.0,74170.3,2.01,-31.51,-31.85,0,*78
1496340433.98,286,22.0,74170.5,2.01,-31.51,-31.95,0,*7A
1496340435.25,287,22.0,74168.3,2.01,-31.61,-31.95,0,*78
1496340436.47,288,22.0,74168.0,2.01,-31.79,-32.01,0,*70
1496340437.65,289,22.0,74168.5,1.99,-31.67,-32.01,0,*7C
1496340438.84,290,22.0,74168.8,1.99,-31.67,-32.01,0,*74
1496340440.08,291,22.0,74170.5,1.99,-31.95,-32.19,0,*71
1496340441.34,292,22.0,74170.0,1.97,-31.91,-32.19,0,*78
1496340442.61,293,22.0,74164.0,1.97,-31.91,-32.19,0,*79
1496340443.79,294,21.94,74162.5,1.99,-31.67,-32.01,0,*70
1496340444.98,295,22.0,74168.8,1.99,-31.79,-32.13,0,*7D
1496340446.17,296,22.0,74168.8,1.99,-32.01,-32.23,0,*71
1496340447.39,297,22.0,74168.3,1.99,-31.95,-32.13,0,*7D
1496340448.58,298,22.0,74168.8,1.99,-31.79,-32.01,0,*73
1496340449.84,299,22.0,74170.5,1.97,-31.91,-32.19,0,*73
1496340451.05,300,22.0,74168.8,1.99,-31.85,-32.01,0,*70
1496340452.24,301,22.0,74168.0,1.99,-31.79,-32.13,0,*71
1496340453.43,302,22.0,74168.0,1.99,-31.79,-32.01,0,*71
1496340454.7,303,22.0,74168.5,1.97,-31.73,-32.19,0,*7D
1496340455.93,304,22.0,74168.5,1.97,-31.91,-32.23,0,*7F
1496340457.17,305,22.0,74170.3,1.97,-31.91,-32.23,0,*7E
1496340458.43,306,22.0,74170.5,1.97,-31.91,-32.19,0,*74
1496340459.7,307,22.0,74166.0,1.97,-31.23,-31.39,0,*7D
1496340460.94,308,22.0,74168.8,1.97,-31.73,-32.01,0,*7F
1496340462.2,309,22.0,74170.8,1.97,-31.91,-32.19,0,*7B
1496340463.47,310,22.0,74170.5,1.97,-31.85,-32.19,0,*76
1496340464.74,311,22.0,74168.0,1.97,-31.85,-32.19,0,*77
1496340466.0,312,22.0,74164.5,1.97,-31.85,-32.07,0,*7B
1496340467.24,313,22.0,74166.3,1.97,-31.91,-32.23,0,*79
1496340468.51,314,22.0,74162.5,1.97,-31.73,-32.07,0,*74
1496340469.75,315,22.0,74164.3,1.97,-32.07,-32.35,0,*74
1496340470.97,316,21.94,74162.3,1.97,-32.01,-32.39,0,*7D
1496340472.2,317,22.0,74164.5,1.95,-32.07,-32.29,0,*79
1496340473.45,318,22.0,74160.3,1.95,-32.07,-32.45,0,*7C
1496340474.66,319,22.0,74166.3,1.95,-32.13,-32.45,0,*78
1496340475.87,320,22.0,74168.0,1.95,-32.23,-32.45,0,*71
1496340477.11,321,22.0,74160.3,1.95,-32.07,-32.29,0,*7C
1496340478.35,322,22.0,74160.3,1.95,-32.07,-32.29,0,*7F
1496340479.57,323,22.0,74158.8,1.95,-31.95,-32.23,0,*7C
1496340480.78,324,21.94,74158.3,1.95,-31.91,-32.13,0,*7C
1496340482.0,325,21.94,74156.3,1.95,-31.73,-32.13,0,*71
1496340483.26,326,22.0,74162.0,1.97,-31.73,-32.19,0,*7A
1496340484.5,327,22.0,74160.8,1.93,-31.91,-32.23,0,*7A
1496340485.72,328,22.0,74162.0,1.95,-31.95,-32.23,0,*77
1496340486.93,329,22.0,74160.3,1.95,-31.91,-32.23,0,*72
1496340488.17,330,22.0,74162.5,1.93,-31.91,-32.23,0,*7C
1496340489.39,331,21.94,74162.5,1.95,-31.91,-32.13,0,*78
1496340490.6,332,21.94,74160.8,1.95,-31.91,-32.13,0,*7B
1496340491.84,333,22.0,74164.0,1.93,-31.91,-32.23,0,*7F
1496340493.08,334,22.0,74164.5,1.93,-31.73,-32.13,0,*77
1496340494.32,335,22.0,74166.8,1.95,-31.73,-32.07,0,*75
1496340495.57,336,21.94,74166.3,1.95,-31.61,-31.95,0,*7D
1496340496.84,337,21.94,74166.3,1.93,-31.73,-32.07,0,*71
1496340498.06,338,22.0,74166.8,1.95,-31.79,-32.07,0,*72
1496340499.3,339,22.0,74162.8,1.95,-31.57,-31.95,0,*77
1496340500.55,340,22.0,74168.0,1.95,-31.61,-32.07,0,*74
1496340501.77,341,22.0,74166.8,1.93,-31.45,-31.79,0,*7F
1496340503.04,342,22.0,74166.5,1.93,-31.73,-32.07,0,*73
1496340504.28,343,22.0,74166.0,1.95,-31.57,-31.91,0,*7E
1496340505.55,344,22.0,74164.3,1.93,-31.23,-31.61,0,*73
1496340506.82,345,21.94,74166.8,1.93,-31.57,-31.91,0,*7E
1496340508.06,346,22.0,74170.0,1.95,-31.57,-31.95,0,*7F
1496340509.3,347,22.0,74172.0,1.95,-31.57,-31.91,0,*7A
1496340510.49,348,21.94,74168.8,1.95,-31.45,-31.79,0,*70
1496340511.74,349,22.0,74172.5,1.95,-31.57,-31.91,0,*74
1496340512.98,350,22.0,74172.8,1.95,-31.61,-32.07,0,*75
1496340514.25,351,22.0,74174.0,1.93,-31.73,-32.07,0,*71
1496340515.52,352,22.0,74174.0,1.93,-31.57,-31.95,0,*7C
1496340516.79,353,21.94,74172.3,1.93,-31.57,-31.95,0,*7D
1496340518.04,354,21.94,74168.0,1.93,-31.79,-32.07,0,*7E
1496340519.25,355,21.94,74170.0,1.93,-31.79,-32.13,0,*7A
1496340520.52,356,21.94,74168.0,1.93,-31.61,-32.07,0,*75
1496340521.79,357,21.94,74168.0,1.93,-31.61,-32.07,0,*74
1496340523.04,358,21.94,74168.0,1.95,-31.61,-32.07,0,*7D
1496340524.28,359,21.94,74168.5,1.93,-31.91,-32.23,0,*73
1496340525.49,360,21.94,74166.3,1.93,-31.79,-32.13,0,*7C
1496340526.71,361,22.0,74172.3,1.95,-31.95,-32.23,0,*7A